Skip Page Navigation
NASA JPL Caltech
NASA Logo - Jet Propulsion Laboratory + View the NASA Portal
+ Center for Near-Earth Object Studies
JPL Home Earth Solar System Stars & Galaxies Technology
JPL Solar System Dynamics
BODIES ORBITS EPHEMERIDES TOOLS PHYSICAL DATA DISCOVERY FAQ SITE MAP
JPL Small-Body Database Browser
Search: [ help ]  
351550 (2005 TX73)
Classification: Main-belt Asteroid          SPK-ID: 2351550
Ephemeris | Orbit Diagram | Orbital Elements | Mission Design | Physical Parameters | Discovery Circumstances ]

[ show orbit diagram ]
Orbital Elements at Epoch 2459000.5 (2020-May-31.0) TDB
Reference: JPL 11 (heliocentric ecliptic J2000)
 Element Value Uncertainty (1-sigma)   Units 
e .2093604071243472 4.3449e-08  
a 2.213584778535829 1.2424e-08 au
q 1.75014776809731 9.9987e-08 au
i 5.088105041365582 4.2257e-06 deg
node 155.8810275423301 5.323e-05 deg
peri 223.2019015331728 5.4702e-05 deg
M 164.8656944531403 1.105e-05 deg
tp 2458449.602930649642
(2018-Nov-27.10293065)
3.5875e-05 TDB
period 1202.936399982824
3.29
1.0127e-05
2.773e-08
d
yr
n .2992676919620523 2.5194e-09 deg/d
Q 2.677021788974348 1.5025e-08 au
  Orbit Determination Parameters
   # obs. used (total)      322  
   data-arc span      5318 days (14.56 yr)  
   first obs. used      2005-09-25  
   last obs. used      2020-04-17  
   planetary ephem.      DE431  
   SB-pert. ephem.      SB431-N16  
   condition code      0  
   norm. resid. RMS      .576  
   source      ORB  
   producer      Otto Matic  
   solution date      2020-May-21 22:53:57  

Additional Information
 Earth MOID = .755951 au 
 Jupiter MOID = 2.78777 au 
 T_jup = 3.621 
[ show covariance matrix ]

Ephemeris | Orbit Diagram | Orbital Elements | Mission Design | Physical Parameters | Discovery Circumstances ]

Physical Parameter Table
Parameter Symbol Value Units Sigma Reference Notes
absolute magnitude H 17.7   n/a MPO258265  

351550 (2005 TX73)          Discovered 2005-Oct-07 by LONEOS at Anderson Mesa
Reference: 20130127/Numbers.arcLast Updated: 2013-01-31
Ephemeris | Orbit Diagram | Orbital Elements | Mission Design | Physical Parameters | Discovery Circumstances ]
ABOUT SSD CREDITS/AWARDS PRIVACY/COPYRIGHT GLOSSARY LINKS
FirstGov 2020-Aug-14 23:24 UT
(server date/time)  
NASA Home Page
Site Manager:   Ryan S. Park
Webmaster  Alan B. Chamberlin